User: anonymous   Login
Location: Newark
(41.6500°N, 71.4833°W)
Time: 06:12:37
(UTC+00:00)
Language:

SR - Orbit

View from above orbital plane
View from above orbital plane
View from above satellite
View from above satellite

Ground track
Ground track

The orbit data is extracted from the following two-line orbital elements,

1    46U 60007B   20024.54399252 -.00000014 +00000-0 +20355-4 0  9995
2    46 066.6904 078.0594 0216634 240.2422 117.6981 14.49270627118111
Epoch (UTC): 24 January 2020 13:03:20
Eccentricity: 0.0216634
inclination: 66.6904°
perigee height: 574 km
apogee height: 882 km
right ascension of ascending node: 78.0594°
argument of perigee: 240.2422°
revolutions per day: 14.49270627
mean anomaly at epoch: 117.6981°
orbit number at epoch: 11811

The dashed part of the orbit path shows where the satellite is in the earth's shadow,  

DLR